[[{"header":{"parameterUnit":"m.s-1","parameterCategory":2,"la1":30.2991,"la2":30.254,"lo1":-89.0895,"lo2":-89.0444,"dy":0.0017,"dx":0.0017,"nx":28,"ny":28,"refTime":"2024-04-09T21:00:00:Z","depth":"0","parameterNumber":2,"parameterNumberName":"U-component_of_CURRENTS"},"data":[0,0,0,0,0,0,0,0,0,0,0,0,0,0,0,0,0,0,0,0,0,0,0,0,0,0,0,0,0,0,0,0,0,0,0,0,0,0,0,0,0,0,0,0,0,0,0,0,0,0,0,0,0,0,0,0,0,0,0.3575,0.3576,0,0.3619,0.3619,0.362,0.3613,0.3613,0.3612,0.3612,0.3597,0.3597,0.3597,0,0,0,0,0,0,0,0,0,0,0,0,0,0.3529,0.3529,0.3575,0.3576,0.3577,0.3619,0.3619,0.362,0.3613,0.3613,0.3612,0.3612,0.3597,0.3597,0.3597,0,0,0,0,0,0,0,0,0,0,0,0,0,0.3555,0.3529,0.3575,0.3581,0.3583,0.3619,0.3619,0.362,0.3613,0.3613,0.3612,0.3612,0.3597,0.3597,0.3597,0.3609,0,0,0.3597,0.3597,0,0,0,0,0,0,0,0,0.3553,0.3556,0.358,0.3581,0.3583,0.3613,0.3598,0.3614,0.3613,0.3598,0.3612,0.3611,0.36,0.3599,0.3605,0.3608,0.3608,0.3597,0.3597,0.3597,0.3597,0,0,0,0,0,0,0,0.3551,0.3555,0.3589,0.3581,0.3582,0.3597,0.3599,0.3601,0.3598,0.3599,0.36,0.3611,0.3599,0.3605,0.3604,0.3607,0.3597,0.3597,0.3597,0.3597,0.3634,0.3635,0,0,0,0,0,0,0.3552,0.3553,0.3588,0.3591,0.357,0.3599,0.3601,0.3601,0.3599,0.36,0.3611,0.361,0.3605,0.3604,0.3604,0.3637,0.3597,0.3597,0.3597,0.3633,0.3634,0.3635,0,0,0,0,0,0,0.355,0.3554,0.3586,0.3576,0.3582,0.36,0.36,0.3602,0.3613,0.3609,0.3608,0.362,0.3605,0.3604,0.362,0.3635,0.3597,0.3597,0.3632,0.3633,0.3634,0.3691,0,0,0,0,0,0,0.3549,0.3553,0.3554,0.3576,0.3582,0.3617,0.3601,0.3604,0.3622,0.3621,0.3617,0.3615,0.3604,0.362,0.362,0.3634,0.3597,0.363,0.3632,0.3634,0.3688,0.3694,0.3699,0,0,0,0,0,0.3547,0.3553,0.3553,0.3558,0.3582,0.3619,0.3623,0.3632,0.3623,0.3636,0.3636,0.3615,0.3631,0.3621,0.3621,0.3635,0.3629,0.3632,0.3634,0.3685,0.3693,0.3699,0,0,0,0,0,0,0.3537,0.3554,0.3555,0.3566,0.3595,0.3619,0.3634,0.3639,0.3649,0.3646,0.3633,0.3632,0.3659,0.3638,0.3627,0.3652,0.3625,0.3627,0.3664,0.3671,0.3677,0.3698,0.3597,0,0,0,0,0,0.3535,0.3541,0.3568,0.358,0.3595,0.3615,0.363,0.3639,0.3654,0.3658,0.3655,0.3653,0.3668,0.3661,0.3674,0.368,0.3708,0.3688,0.3694,0.3699,0.3716,0.3779,0.3793,0.3642,0.3642,0.3642,0,0,0.3532,0.3547,0.3547,0.3578,0.3598,0.362,0.3622,0.3653,0.3668,0.3654,0.367,0.3685,0.368,0.3701,0.3707,0.3681,0.3758,0.3701,0.3706,0.372,0.3783,0.3798,0.3811,0.3644,0.3644,0.3643,0,0,0.3533,0.3547,0.355,0.3576,0.3614,0.3633,0.3644,0.3674,0.3686,0.3712,0.3712,0.3741,0.3739,0.3751,0.3752,0.3796,0.3803,0.3787,0.3816,0.3877,0.3891,0.3903,0.3969,0.3987,0.3771,0.3771,0.3771,0,0.353,0.3535,0.3561,0.3579,0.36,0.3638,0.3653,0.3679,0.3709,0.3727,0.3722,0.3769,0.3768,0.3803,0.3822,0.3811,0.385,0.3789,0.3887,0.39,0.3911,0.3976,0.3995,0.3774,0.3774,0.3773,0.3773,0,0.353,0.3541,0.3554,0.358,0.361,0.3638,0.3678,0.371,0.3731,0.3753,0.3809,0.3828,0.3852,0.3857,0.3854,0.3926,0.3931,0.3905,0.3873,0.393,0.3995,0.4013,0.3778,0.3777,0.3776,0.3776,0,0,0.35,0.3542,0.3543,0.3551,0.3613,0.3632,0.3681,0.3731,0.3758,0.3806,0.3848,0.3896,0.3919,0.3925,0.3931,0.3982,0.4102,0.3979,0.398,0.4052,0.4255,0.4278,0.43,0.4096,0.4099,0.4102,0.4273,0,0.3491,0.3506,0.3537,0.3558,0.3573,0.3633,0.3667,0.3722,0.3774,0.3827,0.3885,0.3931,0.3937,0.3959,0.4018,0.4084,0.4151,0.4059,0.4183,0.4187,0.4206,0.4322,0.429,0.4442,0.4291,0.4294,0.4296,0,0.347,0.3487,0.3497,0.3539,0.3551,0.3571,0.3642,0.3684,0.3783,0.3829,0.3908,0.3955,0.4056,0.4045,0.4208,0.4151,0.4219,0.4269,0.4276,0.4292,0.4245,0.4357,0.4481,0.4377,0.4324,0.4322,0.432,0,0.3419,0.3455,0.3457,0.3473,0.3531,0.355,0.3591,0.3679,0.372,0.3845,0.3893,0.4011,0.4077,0.419,0.4307,0.4269,0.4491,0.4437,0.4527,0.4528,0.4525,0.4521,0.4569,0.457,0.457,0.457,0.4569,0,0.3393,0.3392,0.3428,0.3431,0.3441,0.3502,0.354,0.3606,0.3703,0.3762,0.3885,0.3963,0.4121,0.4256,0.4349,0.4519,0.4529,0.4581,0.4591,0.4543,0.4539,0.4463,0.429,0.4576,0.4575,0.4573,0.4572,0,0.3337,0.336,0.3363,0.3406,0.3415,0.3425,0.3499,0.3532,0.3639,0.3728,0.3774,0.3957,0.4162,0.4319,0.4521,0.4573,0.4573,0.477,0.4713,0.4715,0.468,0.4507,0.4161,0.4081,0.4906,0.4908,0.491,0,0.3309,0.3302,0.3326,0.3324,0.334,0.337,0.3391,0.3492,0.3537,0.3722,0.3758,0.3989,0.4146,0.4469,0.4658,0.4872,0.4631,0.4919,0.4839,0.4719,0.4535,0.4101,0.4028,0.4861,0.4862,0.4863,0.4864,0,0.3255,0.3258,0.3259,0.3253,0.3259,0.3277,0.332,0.3344,0.3476,0.3566,0.3715,0.3861,0.4231,0.4476,0.4775,0.4888,0.4626,0.4942,0.4836,0.4534,0.4042,0.3959,0.4699,0.4871,0.487,0.487,0.487,0.4869,0.32,0.3182,0.3173,0.3156,0.3163,0.3157,0.3136,0.3221,0.3283,0.3401,0.361,0.3801,0.4271,0.4717,0.4777,0.4927,0.4664,0.4878,0.4695,0.428,0.4128,0.4894,0.5053,0.5054,0.5054,0.5054,0.5054,0,0.3095,0.3081,0.3076,0.3034,0.299,0.3035,0.3051,0.3021,0.3056,0.3286,0.3431,0.3886,0.4222,0.4549,0.4874,0.4726,0.4442,0.4592,0.4019,0.3988,0.4771,0.4711,0.478,0.478,0.478,0.4781,0.4781,0.4781,0.3032,0.2971,0.2962,0.2847,0.2825,0.2722,0.2698,0.2715,0.2828,0.3038,0.3273,0.3525,0.3997,0.4331,0.4398,0.4345,0.3928,0.3673,0.3577,0.4214,0.4226,0.4238,0.4153,0.4104,0.4102,0.2747,0.2736,0.2728]},{"header":{"parameterUnit":"m.s-1","parameterCategory":2,"la1":30.2991,"la2":30.254,"lo1":-89.0895,"lo2":-89.0444,"dy":0.0017,"dx":0.0017,"nx":28,"ny":28,"refTime":"2024-04-09T21:00:00:Z","depth":"0","parameterNumber":3,"parameterNumberName":"V-component_of_CURRENTS"},"data":[0,0,0,0,0,0,0,0,0,0,0,0,0,0,0,0,0,0,0,0,0,0,0,0,0,0,0,0,0,0,0,0,0,0,0,0,0,0,0,0,0,0,0,0,0,0,0,0,0,0,0,0,0,0,0,0,0,0,0.0625,0.0624,0,0.053,0.0529,0.0528,0.0473,0.0473,0.0473,0.0472,0.0368,0.0366,0.0363,0,0,0,0,0,0,0,0,0,0,0,0,0,0.0759,0.0757,0.0626,0.0624,0.0623,0.053,0.0529,0.0528,0.0473,0.0473,0.0473,0.0472,0.0369,0.0366,0.0363,0,0,0,0,0,0,0,0,0,0,0,0,0,0.0686,0.0756,0.0626,0.0585,0.058,0.0531,0.0529,0.0527,0.0473,0.0473,0.0472,0.0472,0.037,0.0366,0.0362,0.0343,0,0,0.035,0.0349,0,0,0,0,0,0,0,0,0.069,0.0681,0.0592,0.0588,0.0583,0.0514,0.0538,0.0465,0.0473,0.0513,0.0472,0.0472,0.0416,0.0409,0.0391,0.0339,0.0334,0.035,0.0348,0.0346,0.0345,0,0,0,0,0,0,0,0.0695,0.0685,0.0587,0.0591,0.0585,0.0571,0.0561,0.0524,0.0467,0.051,0.0506,0.0496,0.0414,0.0395,0.0388,0.0333,0.035,0.0347,0.0344,0.0343,0.0254,0.0254,0,0,0,0,0,0,0.0708,0.0689,0.059,0.0585,0.0637,0.0569,0.0557,0.0536,0.0467,0.0457,0.0496,0.0494,0.0402,0.0393,0.0384,0.0379,0.0346,0.0342,0.034,0.0254,0.0254,0.0254,0,0,0,0,0,0,0.0711,0.0699,0.0594,0.0636,0.0622,0.0567,0.0543,0.0534,0.0519,0.0457,0.0446,0.0491,0.0401,0.039,0.0361,0.0374,0.0341,0.0337,0.0254,0.0254,0.0254,0.0356,0,0,0,0,0,0,0.0715,0.0701,0.0699,0.0636,0.062,0.0577,0.0543,0.0532,0.0513,0.0509,0.045,0.0439,0.04,0.0367,0.0357,0.0368,0.0334,0.0254,0.0254,0.0254,0.0352,0.0359,0.0365,0,0,0,0,0,0.072,0.0724,0.0699,0.0688,0.0615,0.0578,0.0569,0.0529,0.0513,0.0513,0.0473,0.0441,0.0359,0.0364,0.0352,0.0363,0.0254,0.0254,0.0254,0.035,0.0358,0.0365,0,0,0,0,0,0,0.0789,0.0716,0.0689,0.0671,0.0632,0.0569,0.057,0.0537,0.0504,0.0505,0.0445,0.0432,0.0409,0.0369,0.0376,0.0334,0.03,0.0297,0.0376,0.0384,0.039,0.0419,0.0331,0,0,0,0,0,0.08,0.0782,0.0713,0.0705,0.0686,0.0628,0.0611,0.0582,0.054,0.0525,0.0481,0.0435,0.0398,0.038,0.0339,0.0321,0.0301,0.0316,0.0322,0.0328,0.0342,0.0321,0.0327,0.0254,0.0254,0.0254,0,0,0.0825,0.0786,0.0776,0.0719,0.0686,0.0672,0.0618,0.06,0.0595,0.052,0.0507,0.0457,0.0397,0.0377,0.0363,0.0347,0.0341,0.0328,0.0334,0.0345,0.0322,0.0329,0.0336,0.0254,0.0254,0.0254,0,0,0.0875,0.0831,0.0832,0.0803,0.0757,0.0719,0.0717,0.0655,0.0635,0.0609,0.0556,0.0518,0.0458,0.0421,0.0394,0.0409,0.0375,0.039,0.0449,0.0429,0.0436,0.0441,0.0445,0.045,0.0395,0.0395,0.0395,0,0.0912,0.0895,0.0832,0.083,0.0818,0.0745,0.0752,0.072,0.0661,0.0652,0.062,0.0536,0.0481,0.0461,0.0461,0.0427,0.0418,0.0431,0.0441,0.0445,0.0449,0.0452,0.0456,0.04,0.0399,0.0399,0.0398,0,0.0955,0.0946,0.0951,0.0917,0.0897,0.0895,0.0837,0.0821,0.0782,0.0744,0.0712,0.0635,0.0587,0.0557,0.0512,0.051,0.0497,0.0454,0.0431,0.0464,0.0463,0.0466,0.0407,0.0405,0.0404,0.0402,0,0,0.1017,0.0987,0.0987,0.0992,0.0944,0.0933,0.0931,0.0902,0.0911,0.0842,0.0848,0.0763,0.0717,0.0682,0.0618,0.0592,0.0606,0.0543,0.0539,0.0566,0.0587,0.0658,0.0668,0.057,0.057,0.0571,0.0584,0,0.107,0.1094,0.1059,0.1086,0.1091,0.1037,0.1045,0.1013,0.0975,0.0963,0.088,0.0858,0.0767,0.0752,0.0709,0.0631,0.0615,0.0608,0.0535,0.0533,0.0608,0.0673,0.0832,0.0864,0.0586,0.0586,0.0587,0,0.1111,0.1126,0.1164,0.117,0.1169,0.1178,0.1177,0.1176,0.1138,0.1112,0.1067,0.1,0.0949,0.0866,0.0767,0.077,0.0693,0.0629,0.0627,0.0662,0.061,0.0779,0.0879,0.0753,0.059,0.059,0.059,0,0.1173,0.1192,0.1231,0.1232,0.123,0.1247,0.125,0.1226,0.1246,0.1217,0.1231,0.1139,0.1114,0.1,0.086,0.0819,0.0765,0.0685,0.0681,0.0685,0.0791,0.0804,0.0779,0.063,0.063,0.063,0.063,0,0.1226,0.1254,0.1268,0.1288,0.1351,0.1323,0.1382,0.137,0.1379,0.1433,0.1322,0.1355,0.1146,0.1079,0.093,0.0844,0.0821,0.0723,0.0703,0.0832,0.0848,0.0717,0.0614,0.063,0.063,0.063,0.063,0,0.1268,0.1277,0.1325,0.1357,0.1377,0.1421,0.1477,0.1521,0.1523,0.1595,0.16,0.1528,0.1467,0.1275,0.1107,0.0967,0.0828,0.0822,0.1003,0.1005,0.088,0.0779,0.069,0.0703,0.0828,0.083,0.0832,0,0.1289,0.1319,0.1383,0.143,0.1447,0.1515,0.1569,0.1592,0.165,0.1723,0.1773,0.174,0.1771,0.1567,0.1336,0.1143,0.0948,0.1105,0.1041,0.0933,0.0802,0.0671,0.0679,0.1221,0.1225,0.1229,0.1232,0,0.1333,0.1353,0.1393,0.15,0.157,0.1658,0.1741,0.181,0.1867,0.196,0.209,0.2143,0.2007,0.1927,0.1646,0.1472,0.1086,0.1178,0.1018,0.1089,0.0993,0.098,0.1146,0.1267,0.1263,0.1261,0.1259,0.1258,0.1369,0.1406,0.1473,0.1571,0.1661,0.179,0.1889,0.2001,0.2152,0.2345,0.2383,0.2593,0.2484,0.2168,0.1832,0.1435,0.1336,0.1321,0.1203,0.1075,0.1107,0.1367,0.1484,0.1482,0.1481,0.1479,0.1478,0,0.1427,0.1466,0.1548,0.1676,0.1793,0.1837,0.2,0.2131,0.2347,0.2633,0.2828,0.315,0.286,0.2482,0.1977,0.1572,0.1359,0.133,0.1179,0.1183,0.1402,0.144,0.1614,0.1614,0.1614,0.1615,0.1615,0.1615,0.1463,0.1539,0.1576,0.1772,0.1872,0.206,0.217,0.2379,0.2633,0.3126,0.3514,0.38,0.3777,0.2485,0.1698,0.1488,0.1182,0.1092,0.0914,0.1045,0.1034,0.1023,0.1034,0.1121,0.112,0.0807,0.0804,0.0802]}],[{"header":{"parameterUnit":"m.s-1","parameterCategory":2,"la1":30.2991,"la2":30.254,"lo1":-89.0895,"lo2":-89.0444,"dy":0.0017,"dx":0.0017,"nx":28,"ny":28,"refTime":"2024-04-09T21:00:00:Z","depth":"2","parameterNumber":2,"parameterNumberName":"U-component_of_CURRENTS"},"data":[0,0,0,0,0,0,0,0,0,0,0,0,0,0,0,0,0,0,0,0,0,0,0,0,0,0,0,0,0,0,0,0,0,0,0,0,0,0,0,0,0,0,0,0,0,0,0,0,0,0,0,0,0,0,0,0,0,0,0.3565,0.3566,0,0.3609,0.3609,0.361,0.3604,0.3604,0.3603,0.3603,0.3589,0.3589,0.3589,0,0,0,0,0,0,0,0,0,0,0,0,0,0.3519,0.3519,0.3565,0.3566,0.3567,0.3609,0.3609,0.361,0.3604,0.3604,0.3603,0.3603,0.3589,0.3589,0.3589,0,0,0,0,0,0,0,0,0,0,0,0,0,0.3545,0.3519,0.3565,0.3572,0.3573,0.3609,0.3609,0.361,0.3604,0.3603,0.3603,0.3602,0.3589,0.3589,0.3589,0.3601,0,0,0.3589,0.3589,0,0,0,0,0,0,0,0,0.3544,0.3546,0.357,0.3571,0.3573,0.3604,0.3588,0.3605,0.3604,0.3589,0.3603,0.3602,0.3591,0.3591,0.3596,0.36,0.3599,0.3589,0.3589,0.3589,0.3589,0,0,0,0,0,0,0,0.3542,0.3545,0.3579,0.3571,0.3573,0.3588,0.359,0.3592,0.3589,0.359,0.359,0.3601,0.3591,0.3596,0.3596,0.3599,0.3589,0.3589,0.3589,0.3589,0.3627,0.3628,0,0,0,0,0,0,0.3542,0.3543,0.3578,0.3581,0.356,0.3589,0.3591,0.3591,0.359,0.3591,0.3602,0.3601,0.3597,0.3596,0.3595,0.3629,0.3589,0.3589,0.3589,0.3626,0.3627,0.3628,0,0,0,0,0,0,0.3541,0.3544,0.3576,0.3566,0.3572,0.359,0.3591,0.3593,0.3603,0.36,0.3599,0.3611,0.3596,0.3595,0.3612,0.3628,0.3589,0.3589,0.3625,0.3626,0.3628,0.3684,0,0,0,0,0,0,0.3539,0.3543,0.3544,0.3566,0.3572,0.3607,0.3592,0.3594,0.3612,0.3612,0.3608,0.3606,0.3595,0.3612,0.3612,0.3627,0.3589,0.3623,0.3625,0.3627,0.3681,0.3687,0.3693,0,0,0,0,0,0.3537,0.3544,0.3544,0.3548,0.3572,0.3609,0.3614,0.3622,0.3614,0.3627,0.3627,0.3606,0.3623,0.3613,0.3613,0.3628,0.3622,0.3625,0.3627,0.3678,0.3686,0.3693,0,0,0,0,0,0,0.3527,0.3545,0.3545,0.3557,0.3585,0.3609,0.3625,0.3629,0.364,0.3637,0.3624,0.3623,0.3651,0.363,0.3619,0.3645,0.3618,0.362,0.3657,0.3664,0.367,0.3691,0.3589,0,0,0,0,0,0.3526,0.3532,0.3559,0.357,0.3585,0.3605,0.362,0.363,0.3645,0.3649,0.3647,0.3645,0.366,0.3654,0.3667,0.3673,0.3701,0.3681,0.3687,0.3692,0.3709,0.3773,0.3787,0.3636,0.3636,0.3636,0,0,0.3522,0.3537,0.3538,0.3569,0.3589,0.361,0.3612,0.3644,0.3659,0.3645,0.3662,0.3677,0.3673,0.3694,0.3701,0.3674,0.3752,0.3695,0.37,0.3714,0.3777,0.3792,0.3805,0.3637,0.3637,0.3637,0,0,0.3523,0.3537,0.3541,0.3567,0.3605,0.3624,0.3635,0.3665,0.3677,0.3703,0.3704,0.3733,0.3732,0.3744,0.3746,0.379,0.3797,0.3782,0.3811,0.3873,0.3886,0.3898,0.3965,0.3982,0.3766,0.3766,0.3766,0,0.3521,0.3526,0.3552,0.357,0.3591,0.3629,0.3645,0.367,0.3701,0.3719,0.3713,0.3762,0.3761,0.3798,0.3816,0.3806,0.3844,0.3783,0.3883,0.3895,0.3907,0.3972,0.3991,0.3769,0.3768,0.3768,0.3768,0,0.3521,0.3532,0.3545,0.3572,0.3601,0.3629,0.367,0.3702,0.3723,0.3746,0.3802,0.3822,0.3846,0.3852,0.3848,0.3921,0.3926,0.39,0.3868,0.3926,0.399,0.4009,0.3773,0.3772,0.3771,0.377,0,0,0.3491,0.3533,0.3534,0.3543,0.3604,0.3624,0.3674,0.3724,0.3751,0.38,0.3842,0.3891,0.3914,0.3921,0.3927,0.3978,0.4098,0.3974,0.3976,0.4048,0.4252,0.4273,0.4295,0.4093,0.4096,0.4098,0.4269,0,0.3482,0.3498,0.3528,0.3551,0.3566,0.3626,0.366,0.3715,0.3768,0.3822,0.388,0.3926,0.3932,0.3955,0.4014,0.408,0.4148,0.4055,0.418,0.4184,0.4201,0.4318,0.3744,0.385,0.4287,0.4291,0.4293,0,0.3461,0.3478,0.3489,0.3532,0.3544,0.3565,0.3636,0.3679,0.3779,0.3824,0.3904,0.3951,0.4052,0.4041,0.4206,0.4148,0.4217,0.4267,0.4273,0.4288,0.424,0.386,0.3867,0.4324,0.4321,0.4319,0.4317,0,0.341,0.3447,0.3449,0.3466,0.3524,0.3544,0.3585,0.3674,0.3716,0.3841,0.3889,0.4008,0.4074,0.4187,0.4304,0.4266,0.4488,0.4435,0.4523,0.4525,0.406,0.4017,0.4569,0.4569,0.4568,0.4568,0.4567,0,0.3384,0.3384,0.342,0.3424,0.3434,0.3497,0.3536,0.3601,0.37,0.3759,0.3882,0.396,0.4119,0.4253,0.4346,0.4515,0.4527,0.4577,0.4588,0.4067,0.4025,0.4438,0.4421,0.4574,0.4573,0.4572,0.457,0,0.3327,0.3351,0.3355,0.3398,0.3409,0.342,0.3495,0.3529,0.3636,0.3726,0.3772,0.3954,0.4159,0.4316,0.4518,0.4569,0.4718,0.4766,0.4168,0.4109,0.4702,0.4686,0.4896,0.4899,0.4901,0.4903,0.4905,0,0.3299,0.3293,0.3318,0.3316,0.3333,0.3364,0.3387,0.3488,0.3535,0.3719,0.3755,0.3986,0.4114,0.4437,0.444,0.46,0.4825,0.435,0.4196,0.4757,0.4745,0.4724,0.4705,0.3581,0.3572,0.3564,0.3558,0,0.3245,0.3249,0.325,0.3245,0.3253,0.3272,0.3316,0.3341,0.3474,0.354,0.3688,0.3806,0.4001,0.3925,0.4158,0.4184,0.4279,0.4214,0.4909,0.3637,0.3544,0.3525,0.3542,0.3489,0.3496,0.3501,0.3505,0.3507,0.319,0.3172,0.3164,0.3149,0.3158,0.3153,0.3132,0.3147,0.3178,0.3191,0.3449,0.3476,0.3568,0.3607,0.356,0.3552,0.3903,0.3851,0.3861,0.3882,0.375,0.3671,0.3614,0.3621,0.3627,0.3633,0.3638,0,0.3056,0.3071,0.3068,0.3028,0.2949,0.3032,0.3049,0.2958,0.2875,0.2948,0.2972,0.2798,0.2732,0.2927,0.2684,0.2786,0.2556,0.2835,0.247,0.2542,0.2606,0.2394,0.1906,0.1902,0.1898,0.1894,0,0,0.2986,0.291,0.2901,0.277,0.2777,0.2637,0.2613,0.2518,0.2505,0.2397,0.2374,0.2503,0.2773,0.2273,0.2214,0.2048,0.2265,0.1941,0.3309,0.2942,0.3,0.3165,0.2923,0,0,0,0,0]},{"header":{"parameterUnit":"m.s-1","parameterCategory":2,"la1":30.2991,"la2":30.254,"lo1":-89.0895,"lo2":-89.0444,"dy":0.0017,"dx":0.0017,"nx":28,"ny":28,"refTime":"2024-04-09T21:00:00:Z","depth":"2","parameterNumber":3,"parameterNumberName":"V-component_of_CURRENTS"},"data":[0,0,0,0,0,0,0,0,0,0,0,0,0,0,0,0,0,0,0,0,0,0,0,0,0,0,0,0,0,0,0,0,0,0,0,0,0,0,0,0,0,0,0,0,0,0,0,0,0,0,0,0,0,0,0,0,0,0,0.0589,0.0588,0,0.0494,0.0493,0.0492,0.0438,0.0438,0.0438,0.0438,0.0334,0.0332,0.0329,0,0,0,0,0,0,0,0,0,0,0,0,0,0.0722,0.072,0.0589,0.0588,0.0587,0.0494,0.0493,0.0492,0.0438,0.0438,0.0438,0.0437,0.0335,0.0332,0.0329,0,0,0,0,0,0,0,0,0,0,0,0,0,0.0649,0.0719,0.0589,0.0549,0.0545,0.0495,0.0493,0.0491,0.0438,0.0438,0.0438,0.0437,0.0336,0.0332,0.0328,0.0309,0,0,0.0316,0.0315,0,0,0,0,0,0,0,0,0.0654,0.0645,0.0556,0.0552,0.0547,0.0478,0.0502,0.043,0.0438,0.0478,0.0438,0.0437,0.0382,0.0374,0.0356,0.0304,0.0299,0.0316,0.0314,0.0312,0.0311,0,0,0,0,0,0,0,0.0659,0.0648,0.0551,0.0555,0.0549,0.0536,0.0525,0.0488,0.0432,0.0475,0.0471,0.0461,0.0379,0.036,0.0354,0.0298,0.0316,0.0313,0.031,0.0309,0.022,0.022,0,0,0,0,0,0,0.0671,0.0653,0.0554,0.0548,0.0601,0.0533,0.0521,0.05,0.0432,0.0422,0.0461,0.0459,0.0367,0.0358,0.035,0.0345,0.0312,0.0308,0.0306,0.022,0.022,0.022,0,0,0,0,0,0,0.0674,0.0663,0.0558,0.06,0.0585,0.0531,0.0508,0.0498,0.0483,0.0422,0.0412,0.0457,0.0367,0.0355,0.0327,0.034,0.0306,0.0303,0.022,0.022,0.022,0.0322,0,0,0,0,0,0,0.0678,0.0664,0.0662,0.06,0.0583,0.0541,0.0508,0.0497,0.0478,0.0474,0.0415,0.0405,0.0365,0.0333,0.0323,0.0334,0.03,0.022,0.022,0.022,0.0318,0.0325,0.0331,0,0,0,0,0,0.0683,0.0687,0.0662,0.0651,0.0579,0.0542,0.0533,0.0493,0.0478,0.0478,0.0438,0.0407,0.0325,0.033,0.0318,0.0329,0.022,0.022,0.022,0.0316,0.0324,0.0331,0,0,0,0,0,0,0.0751,0.068,0.0652,0.0635,0.0595,0.0533,0.0534,0.0501,0.0469,0.047,0.041,0.0397,0.0375,0.0335,0.0341,0.03,0.0266,0.0264,0.0343,0.035,0.0356,0.0385,0.0297,0,0,0,0,0,0.0763,0.0745,0.0676,0.0668,0.0649,0.0592,0.0575,0.0546,0.0505,0.049,0.0446,0.0401,0.0364,0.0346,0.0305,0.0287,0.0267,0.0282,0.0288,0.0294,0.0308,0.0287,0.0294,0.022,0.022,0.022,0,0,0.0788,0.0749,0.0739,0.0682,0.0649,0.0636,0.0582,0.0564,0.0559,0.0485,0.0472,0.0423,0.0363,0.0343,0.0329,0.0313,0.0307,0.0294,0.03,0.0311,0.0288,0.0295,0.0302,0.022,0.022,0.022,0,0,0.0837,0.0794,0.0795,0.0765,0.072,0.0682,0.068,0.0619,0.0599,0.0573,0.0521,0.0484,0.0423,0.0387,0.036,0.0375,0.0341,0.0356,0.0416,0.0396,0.0402,0.0408,0.0412,0.0417,0.0361,0.0361,0.0361,0,0.0874,0.0857,0.0795,0.0792,0.0781,0.0708,0.0716,0.0684,0.0625,0.0616,0.0585,0.0501,0.0447,0.0427,0.0427,0.0393,0.0384,0.0397,0.0407,0.0412,0.0416,0.0418,0.0423,0.0366,0.0366,0.0365,0.0365,0,0.0916,0.0908,0.0912,0.0879,0.0859,0.0857,0.08,0.0784,0.0746,0.0708,0.0677,0.06,0.0553,0.0523,0.0478,0.0477,0.0464,0.0421,0.0398,0.0431,0.043,0.0433,0.0373,0.0371,0.037,0.0369,0,0,0.0978,0.0948,0.0949,0.0953,0.0906,0.0896,0.0893,0.0865,0.0875,0.0806,0.0813,0.0729,0.0683,0.0648,0.0584,0.0558,0.0573,0.051,0.0506,0.0533,0.0554,0.0625,0.0634,0.0537,0.0537,0.0538,0.0551,0,0.1031,0.1054,0.1019,0.1047,0.1053,0.0999,0.1007,0.0976,0.0939,0.0927,0.0845,0.0824,0.0732,0.0718,0.0676,0.0598,0.0582,0.0575,0.0502,0.0501,0.0574,0.064,0.0289,0.0278,0.0553,0.0553,0.0554,0,0.1071,0.1086,0.1124,0.1131,0.113,0.1139,0.114,0.1139,0.1102,0.1076,0.1032,0.0965,0.0915,0.0833,0.0734,0.0737,0.066,0.0596,0.0595,0.0628,0.0576,0.0283,0.0272,0.0558,0.0557,0.0557,0.0557,0,0.1132,0.1152,0.1191,0.1192,0.1191,0.1208,0.1212,0.1189,0.121,0.1182,0.1196,0.1104,0.108,0.0967,0.0827,0.0786,0.0732,0.0652,0.0648,0.0652,0.0324,0.0301,0.0598,0.0598,0.0598,0.0598,0.0598,0,0.1185,0.1213,0.1228,0.1248,0.1312,0.1285,0.1345,0.1334,0.1344,0.1398,0.1288,0.1321,0.1112,0.1046,0.0897,0.0811,0.0788,0.069,0.067,0.0354,0.0334,0.054,0.0533,0.0598,0.0598,0.0598,0.0598,0,0.1226,0.1235,0.1284,0.1317,0.1338,0.1383,0.1441,0.1486,0.1488,0.156,0.1566,0.1493,0.1432,0.124,0.1073,0.0934,0.0819,0.0788,0.0461,0.0406,0.073,0.0728,0.0789,0.0792,0.0794,0.0796,0.0798,0,0.1246,0.1276,0.1342,0.1389,0.1408,0.1476,0.1533,0.1557,0.1615,0.1688,0.1738,0.1704,0.1681,0.1477,0.1056,0.0803,0.0951,0.054,0.0407,0.0782,0.0754,0.0748,0.0743,-0.0012,-0.0018,-0.0022,-0.0025,0,0.129,0.131,0.1351,0.1459,0.1531,0.162,0.1705,0.1775,0.1833,0.1865,0.1994,0.1994,0.1685,0.1252,0.0898,0.0692,0.0546,0.0464,0.0883,0.0054,0.0043,0.0013,0.0029,-0.0062,-0.0059,-0.0056,-0.0054,-0.0052,0.1325,0.1362,0.143,0.153,0.1622,0.1753,0.1853,0.1743,0.1809,0.1698,0.1945,0.1764,0.15,0.0773,0.0532,0.0211,0.029,0.021,0.0213,0.0222,0.0188,0.0188,0.0102,0.0107,0.0111,0.0114,0.0117,0,0.1318,0.1422,0.1505,0.1634,0.164,0.18,0.1965,0.1813,0.1668,0.1538,0.1432,0.1133,0.0702,0.0558,-0.0124,-0.0306,-0.0487,-0.0194,-0.0437,-0.0405,-0.0375,-0.0445,-0.0695,-0.0695,-0.0695,-0.0695,0,0,0.1336,0.1374,0.1409,0.1524,0.1693,0.166,0.1764,0.1503,0.1297,0.0965,0.0837,0.0642,0.0655,0.011,-0.0222,-0.046,-0.0373,-0.0523,0.0088,-0.0153,-0.0118,-0.0237,-0.0318,0,0,0,0,0]}],[{"header":{"parameterUnit":"m.s-1","parameterCategory":2,"la1":30.2991,"la2":30.254,"lo1":-89.0895,"lo2":-89.0444,"dy":0.0017,"dx":0.0017,"nx":28,"ny":28,"refTime":"2024-04-09T21:00:00:Z","depth":"4","parameterNumber":2,"parameterNumberName":"U-component_of_CURRENTS"},"data":[0,0,0,0,0,0,0,0,0,0,0,0,0,0,0,0,0,0,0,0,0,0,0,0,0,0,0,0,0,0,0,0,0,0,0,0,0,0,0,0,0,0,0,0,0,0,0,0,0,0,0,0,0,0,0,0,0,0,0.2015,0.2015,0,0.2047,0.2047,0.2047,0.2093,0.2094,0.2095,0.2096,0.2164,0.2164,0.2165,0,0,0,0,0,0,0,0,0,0,0,0,0,0.1936,0.1937,0.2015,0.2015,0.2016,0.2046,0.2047,0.2047,0.2093,0.2094,0.2095,0.2096,0.2163,0.2164,0.2165,0,0,0,0,0,0,0,0,0,0,0,0,0,0.1967,0.1938,0.2015,0.2044,0.2047,0.2046,0.2047,0.2047,0.2093,0.2094,0.2096,0.2097,0.2163,0.2164,0.2165,0.2143,0,0,0.2169,0.217,0,0,0,0,0,0,0,0,0.1965,0.197,0.2039,0.2042,0.2046,0.2069,0.2044,0.2082,0.2092,0.2073,0.2096,0.2098,0.2136,0.2139,0.2138,0.2146,0.2149,0.2169,0.217,0.2171,0.2171,0,0,0,0,0,0,0,0.1963,0.1968,0.2025,0.204,0.2044,0.2036,0.2043,0.2051,0.2094,0.2075,0.2079,0.2085,0.2138,0.2137,0.214,0.215,0.2169,0.2171,0.2171,0.2172,0.2254,0.2256,0,0,0,0,0,0,0.1965,0.1966,0.2024,0.2026,0.2011,0.2037,0.2044,0.2058,0.2094,0.2101,0.2084,0.2088,0.2134,0.2139,0.2143,0.2221,0.2171,0.2172,0.2173,0.2253,0.2255,0.2256,0,0,0,0,0,0,0.1964,0.1971,0.2023,0.1998,0.2005,0.2037,0.2053,0.2058,0.2099,0.2101,0.2109,0.2124,0.2135,0.2141,0.2185,0.222,0.2173,0.2174,0.2251,0.2253,0.2255,0.2312,0,0,0,0,0,0,0.1961,0.197,0.1996,0.1999,0.2006,0.205,0.2052,0.2058,0.2099,0.2105,0.2137,0.2142,0.2137,0.2183,0.2186,0.2221,0.2175,0.2249,0.2252,0.2255,0.2308,0.2315,0.2322,0,0,0,0,0,0.1959,0.1979,0.1997,0.2005,0.2037,0.2051,0.2054,0.2079,0.21,0.2121,0.2146,0.2143,0.2202,0.2185,0.2188,0.2225,0.2248,0.2251,0.2254,0.2305,0.2314,0.2322,0,0,0,0,0,0,0.1952,0.1986,0.2006,0.2036,0.2058,0.206,0.2086,0.2101,0.2135,0.2155,0.2157,0.2164,0.2217,0.2212,0.2193,0.2257,0.2226,0.223,0.2264,0.2272,0.2279,0.2273,0.2176,0,0,0,0,0,0.1964,0.1997,0.2018,0.2047,0.2063,0.2083,0.21,0.2119,0.214,0.2159,0.218,0.2204,0.2224,0.2243,0.2258,0.2289,0.2296,0.2316,0.2323,0.2329,0.2328,0.2377,0.2389,0.2267,0.2267,0.2266,0,0,0.1968,0.1993,0.2012,0.2049,0.2071,0.2089,0.2098,0.2136,0.2158,0.2159,0.2212,0.2233,0.2239,0.2278,0.2301,0.2283,0.2369,0.2333,0.2338,0.2333,0.2382,0.2394,0.2404,0.2269,0.2268,0.2268,0,0,0.1972,0.2019,0.2043,0.2067,0.211,0.2122,0.2143,0.2174,0.2203,0.2244,0.2256,0.2299,0.2329,0.234,0.2346,0.2399,0.2406,0.2415,0.2445,0.2494,0.2504,0.2513,0.2543,0.2554,0.2416,0.2417,0.2417,0,0.1978,0.2009,0.205,0.2074,0.2096,0.2141,0.2161,0.219,0.2233,0.2258,0.2275,0.2339,0.2353,0.239,0.2412,0.2415,0.2441,0.2412,0.2503,0.2512,0.2521,0.2548,0.256,0.242,0.2419,0.2419,0.2419,0,0.1985,0.2024,0.2042,0.209,0.2119,0.2149,0.219,0.2235,0.228,0.2306,0.2376,0.24,0.2437,0.2454,0.245,0.2517,0.2516,0.2509,0.2481,0.2537,0.2562,0.2573,0.2424,0.2423,0.2422,0.2421,0,0,0.1955,0.2032,0.2041,0.2068,0.2135,0.2152,0.2208,0.2257,0.23,0.2361,0.2411,0.2461,0.2496,0.2506,0.2522,0.2563,0.2648,0.2569,0.257,0.2596,0.2758,0.2578,0.2573,0.267,0.2672,0.2673,0.2753,0,0.195,0.1991,0.2034,0.2078,0.2102,0.2165,0.2208,0.2266,0.2327,0.239,0.2443,0.2502,0.251,0.2547,0.2593,0.2636,0.2681,0.2627,0.2701,0.2703,0.2535,0.258,0.268,0.2761,0.2764,0.2766,0.2767,0,0.1934,0.1968,0.2008,0.2078,0.2097,0.2134,0.2218,0.2265,0.2362,0.2415,0.2491,0.2538,0.2616,0.2615,0.2722,0.2696,0.2735,0.2761,0.2765,0.2581,0.2543,0.2694,0.2787,0.2786,0.2784,0.2783,0.2782,0,0.1878,0.1946,0.1981,0.2005,0.2089,0.213,0.2184,0.2278,0.2329,0.2445,0.2502,0.2592,0.2658,0.2724,0.2788,0.2775,0.2895,0.2878,0.275,0.2738,0.2852,0.2841,0.2954,0.2954,0.2954,0.2954,0.2953,0,0.1839,0.1872,0.1965,0.1983,0.2031,0.2108,0.2175,0.2246,0.2352,0.2413,0.2522,0.2576,0.2697,0.2773,0.2814,0.2809,0.2923,0.2754,0.2745,0.2874,0.2865,0.286,0.2849,0.2957,0.2956,0.2955,0.2955,0,0.1773,0.1835,0.1878,0.1974,0.2008,0.2048,0.2163,0.2206,0.233,0.2416,0.246,0.2596,0.2689,0.2782,0.2888,0.2823,0.2846,0.282,0.2954,0.2952,0.265,0.2641,0.2668,0.2663,0.2658,0.2654,0.265,0,0.1739,0.1757,0.186,0.1885,0.1935,0.2008,0.2054,0.2181,0.2231,0.2403,0.243,0.2567,0.2644,0.2646,0.2752,0.28,0.278,0.2759,0.269,0.2631,0.2622,0.262,0.2617,0.2643,0.2641,0.264,0.2639,0,0.1671,0.1725,0.1762,0.1815,0.1866,0.1911,0.1994,0.2013,0.216,0.2293,0.2342,0.2383,0.2479,0.2539,0.2593,0.2625,0.2745,0.2708,0.2717,0.2652,0.2601,0.2595,0.2598,0.2622,0.2624,0.2626,0.2627,0,0.1624,0.1632,0.1688,0.1716,0.1782,0.1792,0.1846,0.19,0.1961,0.2153,0.2164,0.2317,0.2452,0.245,0.2503,0.2511,0.2476,0.2388,0.2413,0.2433,0.2317,0.2215,0.2108,0,0,0,0,0,0.1559,0.1551,0.1578,0.1596,0.166,0.1696,0.1794,0.1854,0.1998,0.1981,0.2065,0.2143,0.2198,0.2273,0.2239,0.2407,0.2492,0.2354,0.2404,0.2529,0.2548,0.2432,0,0,0,0,0,0,0.1508,0.1538,0.1536,0.1493,0.1491,0.154,0.16,0.1695,0.1693,0.1852,0.1899,0.2014,0.211,0.2207,0.22,0.2224,0.221,0.2452,0.2447,0.2518,0.2535,0.2551,0.2438,0,0,0,0,0]},{"header":{"parameterUnit":"m.s-1","parameterCategory":2,"la1":30.2991,"la2":30.254,"lo1":-89.0895,"lo2":-89.0444,"dy":0.0017,"dx":0.0017,"nx":28,"ny":28,"refTime":"2024-04-09T21:00:00:Z","depth":"4","parameterNumber":3,"parameterNumberName":"V-component_of_CURRENTS"},"data":[0,0,0,0,0,0,0,0,0,0,0,0,0,0,0,0,0,0,0,0,0,0,0,0,0,0,0,0,0,0,0,0,0,0,0,0,0,0,0,0,0,0,0,0,0,0,0,0,0,0,0,0,0,0,0,0,0,0,-0.0198,-0.0198,0,-0.0269,-0.027,-0.0271,-0.0302,-0.0302,-0.0301,-0.0301,-0.038,-0.0382,-0.0384,0,0,0,0,0,0,0,0,0,0,0,0,0,-0.0143,-0.0144,-0.0198,-0.0199,-0.0199,-0.0269,-0.027,-0.0271,-0.0302,-0.0302,-0.0301,-0.0301,-0.0379,-0.0382,-0.0384,0,0,0,0,0,0,0,0,0,0,0,0,0,-0.0186,-0.0144,-0.0198,-0.0223,-0.0225,-0.0268,-0.027,-0.0271,-0.0302,-0.0302,-0.0301,-0.0301,-0.0378,-0.0381,-0.0385,-0.0411,0,0,-0.0395,-0.0396,0,0,0,0,0,0,0,0,-0.0184,-0.0188,-0.0218,-0.0221,-0.0224,-0.0275,-0.0279,-0.0318,-0.0302,-0.0274,-0.0301,-0.0301,-0.0345,-0.0351,-0.0366,-0.0414,-0.0418,-0.0395,-0.0397,-0.0399,-0.04,0,0,0,0,0,0,0,-0.0181,-0.0186,-0.0227,-0.0219,-0.0223,-0.0249,-0.0254,-0.0287,-0.0311,-0.0276,-0.0278,-0.0285,-0.0347,-0.0363,-0.0368,-0.0419,-0.0395,-0.0398,-0.04,-0.0401,-0.0486,-0.0486,0,0,0,0,0,0,-0.0168,-0.0183,-0.0224,-0.0229,-0.0202,-0.025,-0.0256,-0.026,-0.031,-0.0318,-0.0285,-0.0286,-0.0357,-0.0364,-0.0371,-0.0394,-0.0399,-0.0402,-0.0404,-0.0485,-0.0486,-0.0486,0,0,0,0,0,0,-0.0166,-0.0171,-0.0222,-0.0207,-0.0215,-0.025,-0.0255,-0.0261,-0.0277,-0.0317,-0.0324,-0.0294,-0.0357,-0.0366,-0.0398,-0.0398,-0.0403,-0.0406,-0.0485,-0.0486,-0.0486,-0.0447,0,0,0,0,0,0,-0.0164,-0.017,-0.0171,-0.0206,-0.0215,-0.0245,-0.0256,-0.0263,-0.0281,-0.0283,-0.0327,-0.0334,-0.0358,-0.0393,-0.0401,-0.0403,-0.0409,-0.0485,-0.0485,-0.0486,-0.0448,-0.0446,-0.0445,0,0,0,0,0,-0.0162,-0.0168,-0.0171,-0.0176,-0.0215,-0.0245,-0.0253,-0.0278,-0.0281,-0.029,-0.0317,-0.0332,-0.0401,-0.0396,-0.0406,-0.0408,-0.0485,-0.0485,-0.0486,-0.0449,-0.0447,-0.0445,0,0,0,0,0,0,-0.0156,-0.0172,-0.0176,-0.0189,-0.0212,-0.025,-0.0262,-0.0276,-0.0305,-0.0305,-0.0339,-0.0349,-0.0378,-0.0399,-0.0392,-0.0434,-0.0444,-0.0447,-0.0413,-0.0411,-0.0409,-0.0398,-0.0412,0,0,0,0,0,-0.0151,-0.0152,-0.0178,-0.0189,-0.0197,-0.0228,-0.0243,-0.0258,-0.0287,-0.0299,-0.0328,-0.0359,-0.039,-0.0404,-0.0437,-0.0459,-0.0473,-0.0466,-0.0464,-0.0463,-0.046,-0.0479,-0.0478,-0.0488,-0.0488,-0.0488,0,0,-0.0152,-0.0162,-0.0164,-0.0187,-0.0206,-0.0219,-0.0237,-0.0257,-0.0267,-0.0304,-0.0327,-0.0358,-0.0396,-0.0422,-0.0436,-0.0437,-0.0467,-0.0463,-0.0461,-0.046,-0.048,-0.0478,-0.0478,-0.0488,-0.0488,-0.0488,0,0,-0.0157,-0.0162,-0.0164,-0.0178,-0.0199,-0.0215,-0.0218,-0.025,-0.0262,-0.0289,-0.0316,-0.0344,-0.039,-0.0415,-0.0434,-0.0442,-0.046,-0.0452,-0.0429,-0.0446,-0.0446,-0.0445,-0.0455,-0.0455,-0.0445,-0.0445,-0.0445,0,-0.0159,-0.0163,-0.0173,-0.018,-0.0188,-0.0209,-0.0216,-0.0234,-0.0273,-0.0278,-0.0289,-0.0353,-0.0386,-0.0414,-0.0418,-0.0437,-0.0447,-0.0432,-0.0443,-0.0442,-0.0442,-0.0453,-0.0454,-0.0443,-0.0443,-0.0443,-0.0444,0,-0.0165,-0.0167,-0.0172,-0.0178,-0.0188,-0.02,-0.0216,-0.0226,-0.0238,-0.0256,-0.0285,-0.033,-0.0361,-0.0379,-0.0403,-0.042,-0.0427,-0.0441,-0.0444,-0.0439,-0.045,-0.0452,-0.044,-0.0441,-0.0442,-0.0442,0,0,-0.0174,-0.0174,-0.0175,-0.017,-0.0185,-0.0193,-0.0199,-0.0211,-0.0204,-0.0243,-0.0244,-0.0304,-0.0319,-0.0341,-0.0374,-0.0393,-0.0404,-0.0412,-0.0414,-0.0413,-0.0435,-0.0448,-0.0452,-0.0417,-0.0417,-0.0417,-0.044,0,-0.0177,-0.0178,-0.0178,-0.0176,-0.0176,-0.0182,-0.0181,-0.0191,-0.0199,-0.0204,-0.0245,-0.0262,-0.0306,-0.0313,-0.0342,-0.0389,-0.0408,-0.0396,-0.0448,-0.0449,-0.0455,-0.0454,-0.0418,-0.0442,-0.0442,-0.0443,-0.0443,0,-0.0183,-0.0179,-0.0175,-0.0158,-0.0157,-0.0156,-0.0142,-0.0142,-0.015,-0.0154,-0.0176,-0.0204,-0.0242,-0.0274,-0.0348,-0.0336,-0.0382,-0.042,-0.0422,-0.0449,-0.0466,-0.0452,-0.0446,-0.0446,-0.0446,-0.0446,-0.0445,0,-0.0178,-0.0175,-0.0164,-0.0163,-0.0152,-0.0143,-0.0132,-0.0129,-0.011,-0.0116,-0.0102,-0.0156,-0.017,-0.024,-0.0324,-0.0331,-0.04,-0.0418,-0.0474,-0.0475,-0.0472,-0.0473,-0.0468,-0.0468,-0.0468,-0.0468,-0.0468,0,-0.0178,-0.0171,-0.0158,-0.0153,-0.0128,-0.0124,-0.0093,-0.0085,-0.0062,-0.0029,-0.0071,-0.0064,-0.0161,-0.0214,-0.0299,-0.039,-0.0382,-0.047,-0.0484,-0.0455,-0.0454,-0.0473,-0.0474,-0.0469,-0.0468,-0.0468,-0.0468,0,-0.0175,-0.017,-0.0156,-0.0138,-0.0125,-0.0106,-0.0058,-0.003,-0.001,0.0034,0.004,0.001,-0.0059,-0.0163,-0.0272,-0.0349,-0.044,-0.0476,-0.0428,-0.0439,-0.0508,-0.0506,-0.0534,-0.0535,-0.0536,-0.0536,-0.0536,0,-0.0174,-0.0167,-0.0142,-0.013,-0.012,-0.0087,-0.0053,-0.001,0.0029,0.0079,0.0103,0.0061,0.002,-0.0126,-0.0257,-0.0416,-0.0448,-0.049,-0.0515,-0.0505,-0.0515,-0.0513,-0.051,-0.0537,-0.0538,-0.0538,-0.0538,0,-0.0176,-0.0168,-0.0156,-0.0131,-0.0099,-0.0051,0.0001,0.0048,0.0112,0.0132,0.0173,0.0106,0.0025,-0.0113,-0.0238,-0.0358,-0.0461,-0.0497,-0.0497,-0.0521,-0.0509,-0.0518,-0.0515,-0.054,-0.054,-0.0539,-0.0539,0,-0.0182,-0.0181,-0.0171,-0.0148,-0.0101,-0.0035,0.0007,0.007,0.0125,0.0202,0.021,0.0136,0.0096,-0.0083,-0.02,-0.032,-0.036,-0.04,-0.0406,-0.0406,-0.0376,-0.0342,-0.0331,0,0,0,0,0,-0.02,-0.0213,-0.0192,-0.0164,-0.0107,-0.008,0.0027,0.0076,0.0158,0.0202,0.0218,0.0151,0.0002,-0.0069,-0.019,-0.0253,-0.0413,-0.0403,-0.047,-0.0551,-0.0549,-0.0539,0,0,0,0,0,0,-0.0227,-0.0219,-0.0212,-0.0179,-0.016,-0.0088,-0.0013,0.0056,0.009,0.0158,0.0084,0.0085,-0.0071,0.0051,-0.0213,-0.0249,-0.0311,-0.0469,-0.0472,-0.0552,-0.055,-0.0548,-0.0538,0,0,0,0,0]}]]